Powrót do katalogu

GAOFEN DUOMO

GFDM

AktywnyNaukaSSO
NORAD 45856·PAYLOAD·🇨🇳 China

Wystrzelony Jul 3, 2020 z Taiyuan Satellite Launch Center

Loading…

Następne Przeloty (najbliższe 24 godziny)

TLE

ŚwieżeSource: Space-Track

Epoka: Sep 14, 2026, 15:23 UTC

1 45856U 20042A   26257.64118292  .00000176  00000-0  32007-4 0  9991
2 45856  97.7656 314.2262 0011773 139.8195 220.3888 14.76861340334219

Śledź GAOFEN DUOMO w czasie rzeczywistym z AllMySat

Download on the App Store